Wind_Speed
30 29 28 25 24 25 27 27 27 26 25 25 25 25 23 21 18 18 22 25 28 30 30 32 34 34 31 29 31 35 36 37 36 37 38 39 40 38 35 33 30 29 29 29 26 24 21 17 12 8 5 4 4 5 6 6 7 8 7 7 9 11 14 13 10 9 10 10 11 11 11 11 11 12 14 15 15 16 16 16 17 17 17 17 16 16
30 29 26 24 24 25 27 27 26 26 26 26 26 26 24 22 20 20 22 25 29 31 29 30 33 32 29 27 28 32 33 33 33 34 36 37 37 36 34 33 32 32 33 32 28 26 23 19 13 9 7 5 4 4 5 6 7 8 8 9 11 11 13 14 10 9 11 11 11 12 13 13 12 12 14 15 16 16 17 17 17 18 18 18 17 17
29 27 24 23 24 25 26 25 25 26 27 26 26 25 23 21 21 22 23 24 28 31 29 28 31 29 26 25 26 29 29 29 29 32 34 36 35 34 32 31 31 31 31 31 28 26 23 20 15 12 9 7 6 6 6 7 8 9 10 10 12 12 12 13 11 10 10 10 11 12 13 13 13 13 14 16 16 17 18 18 18 19 19 19 18 17
27 25 24 24 25 24 24 25 26 27 28 27 26 23 20 20 23 24 24 25 28 31 28 27 28 25 23 24 25 26 27 26 27 29 32 33 32 30 28 28 28 27 27 27 25 24 24 22 18 15 12 9 9 9 9 10 10 11 11 11 13 13 13 13 13 11 10 10 11 12 13 14 14 14 15 17 19 19 19 18 19 19 19 19 18 17
26 25 25 26 25 24 25 25 27 28 28 27 24 21 19 20 23 24 26 28 29 29 27 26 27 22 20 23 24 25 26 25 26 27 29 29 27 25 25 25 25 24 25 26 25 25 25 23 20 17 15 12 11 11 12 12 12 12 12 12 13 14 16 15 14 11 10 11 12 13 14 15 15 16 17 19 21 20 19 19 21 20 20 20 19 18
25 24 24 25 25 25 26 27 28 28 26 23 19 18 19 20 22 24 27 31 29 27 27 28 26 21 19 22 24 24 24 23 24 26 26 26 24 23 22 22 22 23 24 26 26 26 26 25 22 19 17 14 12 13 14 15 15 14 13 13 14 15 17 18 15 12 10 11 13 14 15 16 17 18 19 20 20 20 20 21 22 23 22 22 21 20
24 23 23 24 25 25 26 27 27 25 22 19 17 19 20 20 23 26 28 31 30 27 27 27 25 21 19 20 22 23 23 23 24 25 25 25 23 21 21 22 23 23 23 24 25 26 26 25 21 20 19 16 14 14 16 16 16 16 15 15 16 16 17 19 17 15 14 14 16 17 17 18 18 18 18 20 20 21 22 23 24 24 23 22 21 21
21 20 22 23 24 24 25 24 23 23 21 19 19 21 21 20 24 28 29 30 30 28 27 26 24 21 18 18 21 22 22 22 23 24 25 24 22 21 21 23 23 23 23 24 25 25 25 22 21 22 21 17 15 15 17 17 17 17 17 17 18 18 19 19 19 18 18 18 19 19 20 19 18 18 19 20 20 22 24 24 24 23 22 21 20 20
20 21 23 23 24 24 22 21 22 24 22 20 22 22 21 22 25 28 29 29 29 29 26 24 25 22 17 18 20 21 20 19 20 22 23 22 21 21 22 22 22 23 24 25 26 26 25 24 23 25 22 18 16 16 17 18 17 17 18 18 18 19 20 20 20 20 20 21 20 20 20 18 17 18 20 20 21 23 24 24 23 22 21 20 20 20
23 24 25 25 25 23 20 22 25 25 22 21 22 22 22 23 25 27 29 29 30 29 24 23 26 23 18 17 19 20 17 16 17 18 19 19 20 20 20 20 22 24 26 27 28 28 28 27 27 27 24 19 17 17 18 18 18 17 18 18 18 19 20 21 21 21 21 21 21 21 19 18 18 20 20 20 22 23 23 23 23 22 21 20 19 20
23 24 24 24 23 20 21 25 26 23 22 22 22 22 22 23 24 26 28 28 30 28 22 23 26 23 19 16 18 19 16 15 16 16 18 19 19 20 20 20 22 25 28 29 30 31 31 30 31 30 24 19 18 18 19 19 18 17 17 18 19 19 20 22 21 22 22 22 22 21 19 19 19 21 21 21 23 23 23 23 22 22 21 20 20 20
22 22 23 22 21 20 23 26 25 23 22 21 21 22 23 23 25 26 27 27 28 25 22 24 26 23 19 17 19 20 17 18 20 18 18 19 20 20 20 20 22 24 27 29 30 31 31 31 31 28 21 18 19 19 18 19 18 18 18 19 19 20 22 23 22 22 23 23 22 21 19 19 20 21 21 21 22 22 22 22 22 21 20 20 20 20
22 22 22 22 21 21 24 26 25 22 21 21 22 23 23 24 25 25 26 26 24 21 22 24 25 24 20 18 21 21 18 21 24 22 20 20 20 20 20 20 21 22 24 25 26 26 26 27 28 26 20 18 18 18 17 18 18 19 19 20 21 22 23 25 25 25 24 23 22 21 19 19 20 21 21 21 21 21 21 21 20 19 19 19 19 19
24 24 23 22 20 21 23 24 22 21 21 23 24 24 24 24 23 23 24 24 21 21 23 24 25 24 20 20 22 21 20 23 26 25 23 22 21 19 19 19 19 20 20 22 24 23 21 22 27 28 22 18 17 17 17 17 18 20 21 21 24 25 24 27 28 25 23 22 22 20 19 19 20 21 21 21 21 21 20 19 18 17 17 18 18 18
26 25 23 21 19 20 20 20 20 23 25 26 27 26 25 23 22 22 23 22 22 22 24 24 24 23 22 23 23 20 21 24 26 26 24 23 23 21 19 18 18 19 20 22 25 24 21 21 28 29 22 18 17 17 18 19 21 22 23 23 24 24 24 26 26 22 21 21 19 17 16 17 19 21 21 22 21 20 19 17 16 17 18 18 17 18
25 25 23 21 20 21 20 21 24 26 27 27 27 26 23 21 21 22 23 23 22 23 24 24 23 23 24 25 23 20 21 23 25 24 23 24 25 24 21 19 19 20 22 24 25 25 25 25 29 30 24 20 19 19 20 23 24 24 24 23 22 21 23 25 23 19 18 18 17 17 17 18 20 21 21 22 21 19 18 17 17 18 19 19 18 18
25 24 23 22 22 23 24 25 27 27 26 26 26 23 21 21 22 22 23 23 23 22 23 22 21 23 26 27 24 22 21 22 22 22 22 24 27 26 24 23 22 22 24 25 25 27 29 28 30 31 27 22 20 21 22 25 25 24 23 22 21 21 23 23 22 19 17 18 19 19 19 19 20 20 20 22 22 20 20 19 18 18 19 19 18 16
25 25 24 24 24 26 27 27 28 28 27 26 24 21 21 23 24 24 24 24 23 22 22 21 19 22 27 27 26 24 23 22 22 21 21 23 24 25 25 24 24 24 25 26 28 31 32 31 31 31 29 24 22 23 24 24 25 23 21 22 21 20 19 19 19 19 18 20 21 19 19 19 19 18 19 21 23 22 20 19 19 19 19 19 17 14
26 25 25 25 26 28 29 28 28 29 28 26 24 22 22 23 24 24 25 24 22 21 21 20 19 20 24 27 28 25 24 24 24 23 22 22 22 23 23 24 25 25 26 28 31 34 33 31 30 30 30 26 25 25 25 25 23 20 21 22 20 15 14 15 17 19 20 19 18 16 16 16 17 18 19 21 23 22 20 21 20 17 17 16 15 13
26 25 25 26 27 29 30 30 29 29 28 25 24 24 24 24 23 23 24 23 22 20 19 18 17 18 20 24 28 28 26 26 26 25 24 24 24 24 24 25 26 27 29 29 29 32 34 30 26 28 29 28 27 27 25 24 21 19 21 23 19 13 11 13 16 20 21 18 14 13 12 12 14 16 18 21 22 21 20 21 20 16 15 15 15 15
26 25 25 27 28 30 31 31 30 30 28 25 23 24 25 26 26 25 24 23 22 22 20 18 17 16 16 19 24 28 29 28 27 27 27 26 26 27 27 27 28 31 33 31 27 26 30 29 26 27 28 29 28 26 22 22 20 19 20 20 17 13 11 11 13 17 20 18 15 14 13 12 13 14 16 19 21 21 20 20 18 16 16 16 16 17
26 25 26 27 29 31 32 32 32 31 29 26 25 25 26 27 28 27 25 24 23 23 22 21 19 16 16 17 20 24 28 29 29 29 29 28 29 30 30 31 32 34 36 35 28 24 26 27 27 27 27 28 29 25 22 21 20 19 19 16 15 15 13 13 14 15 18 19 17 16 16 16 15 15 15 17 18 19 19 18 16 16 17 17 17 17
27 25 26 29 30 32 33 33 33 32 31 28 27 27 28 28 29 28 26 25 24 23 23 22 20 17 16 17 17 19 22 25 28 29 29 29 29 29 29 30 31 32 34 34 29 27 25 25 26 26 27 29 28 26 24 22 20 19 19 17 15 15 15 15 16 16 18 20 19 18 18 19 19 18 17 17 18 18 18 18 17 16 17 17 17 16
28 27 27 29 30 32 33 34 34 34 32 30 29 29 29 29 28 28 26 25 25 25 24 23 21 19 17 17 17 18 19 20 22 23 25 25 25 24 25 28 29 27 30 33 30 28 26 24 25 25 27 29 28 27 26 24 21 20 21 20 17 15 15 16 16 17 18 20 21 19 19 19 20 20 20 19 19 19 18 19 18 18 18 18 18 18
30 28 28 29 30 32 34 35 35 35 33 31 30 31 31 30 28 27 26 26 26 26 25 24 22 18 17 17 17 17 18 18 18 18 18 19 20 20 21 24 25 19 23 32 30 27 26 26 26 27 27 28 29 28 26 24 22 22 22 21 18 16 16 15 15 15 16 19 21 21 20 20 20 21 20 19 19 18 18 18 19 19 20 20 20 20
30 29 28 29 30 31 34 35 34 33 32 31 31 33 33 32 29 28 27 27 27 26 25 25 23 20 17 17 16 15 15 16 16 16 16 16 17 18 17 17 18 15 16 23 24 24 26 28 28 27 27 27 27 27 26 24 23 23 23 22 21 18 16 15 15 15 15 17 19 20 21 22 22 23 23 21 20 20 19 19 19 20 21 21 22 22
29 30 30 29 30 30 32 33 33 32 32 32 33 34 33 32 31 29 28 27 26 26 26 25 24 22 20 19 18 15 14 14 15 16 17 16 15 15 13 12 13 13 13 16 17 18 21 25 25 24 24 24 24 26 26 24 23 23 23 23 22 19 17 16 15 15 15 16 17 19 21 21 23 25 26 24 23 23 22 21 21 21 21 21 22 22
30 31 30 30 30 31 31 32 32 33 33 33 33 34 33 32 31 30 30 28 26 25 26 26 25 23 22 20 19 17 15 14 15 16 17 16 15 14 13 11 10 10 11 13 14 13 14 17 18 20 21 20 20 22 22 21 21 21 22 22 23 21 19 17 16 15 16 16 17 18 20 22 24 25 26 26 25 24 24 23 23 23 22 22 21 21
29 29 30 30 31 31 31 31 32 33 33 33 33 33 33 33 32 32 31 30 28 27 26 25 25 24 22 21 20 19 18 15 14 15 16 15 15 14 13 12 11 10 10 11 13 14 13 14 15 17 19 19 18 17 17 17 17 18 19 22 23 22 20 18 17 17 17 17 18 17 17 19 21 22 22 23 24 25 25 25 25 25 24 23 22 22
23 22 23 26 29 32 32 31 31 32 33 33 33 34 34 33 33 33 33 32 30 29 27 26 25 24 22 22 22 21 20 17 15 15 14 13 13 13 13 12 12 11 11 11 13 15 15 14 15 16 17 17 17 16 15 16 16 15 17 19 20 20 20 19 19 19 19 20 21 20 18 17 18 19 19 20 23 25 27 28 27 26 26 24 24 24
16 14 14 16 20 27 31 32 31 31 32 33 34 34 35 34 34 34 33 33 31 30 29 27 25 24 23 23 23 23 22 20 18 16 15 14 14 13 12 12 11 10 11 13 14 14 14 14 14 15 16 16 16 15 15 15 15 14 14 16 18 20 21 22 21 19 19 19 19 20 20 19 17 17 18 19 20 21 25 28 27 26 25 23 21 22
17 16 15 15 16 19 24 29 30 31 32 33 35 36 36 36 36 35 34 33 32 31 30 29 27 26 25 24 24 24 23 22 21 19 18 17 16 15 13 13 12 10 10 12 14 14 13 13 14 16 16 16 17 16 16 17 17 17 17 19 21 22 23 23 22 20 20 19 18 18 20 20 17 16 16 17 17 20 26 31 30 24 19 14 13 15
25 23 20 19 19 20 21 23 26 28 30 32 34 37 39 38 36 36 35 33 32 31 31 30 29 28 27 25 24 24 24 23 22 21 20 18 17 16 15 15 14 14 13 14 16 16 15 14 16 17 17 17 17 18 18 18 18 18 19 20 21 21 22 22 21 21 22 22 21 19 19 19 17 15 16 16 18 20 21 21 20 16 13 11 12 13
27 25 23 21 21 22 22 23 24 26 28 29 29 32 38 40 38 36 36 34 33 33 33 32 31 30 29 26 25 24 24 23 21 20 20 19 18 17 16 16 17 18 19 18 18 18 17 16 18 19 18 18 18 18 18 17 17 16 16 16 16 17 18 18 18 19 20 21 21 19 19 19 17 16 16 17 19 19 16 13 12 12 12 13 14 15
23 23 22 21 21 22 24 24 25 26 27 26 25 26 31 36 37 37 37 36 36 35 35 34 33 33 31 28 26 25 24 23 22 21 20 20 20 19 19 19 19 19 19 18 17 17 17 16 18 19 18 18 18 18 18 17 17 16 15 15 15 15 16 17 17 18 19 20 20 20 19 20 19 19 19 19 19 19 18 16 15 14 14 14 15 17
20 22 22 21 20 19 18 19 20 23 25 25 24 25 27 31 33 34 34 36 36 36 36 35 34 33 32 30 28 27 27 26 24 22 21 22 23 22 22 22 23 22 22 20 19 18 17 17 18 19 19 19 19 21 21 21 20 19 18 17 18 18 18 18 18 18 19 19 20 20 20 20 20 20 21 22 22 21 19 18 16 16 16 16 17 18
19 22 22 21 19 15 12 12 13 14 15 16 17 20 23 27 29 30 31 33 34 34 35 35 34 33 32 31 30 29 29 28 27 25 23 23 24 23 23 23 24 25 25 24 22 20 18 18 20 20 21 21 22 23 24 24 23 23 22 20 20 19 19 19 20 20 20 21 21 21 21 21 21 21 21 21 21 21 20 20 19 19 18 18 19 19
21 23 23 22 19 15 11 10 11 10 9 9 11 15 19 22 25 27 29 30 31 32 33 34 34 34 33 32 31 31 30 29 29 28 26 24 23 22 23 23 24 25 25 24 24 23 22 22 23 22 22 25 26 25 26 26 25 25 25 24 23 22 21 21 21 22 23 23 23 22 22 23 23 22 21 21 21 21 21 21 21 21 21 22 23 23
21 23 24 24 22 17 11 9 9 9 8 7 8 11 14 17 20 23 24 25 26 28 29 30 31 31 30 30 31 31 31 30 30 29 28 26 24 23 23 24 25 25 25 24 25 26 26 25 25 24 24 25 27 28 28 27 27 27 27 27 26 25 24 23 23 23 24 25 24 24 24 24 24 23 22 22 21 22 22 23 23 23 24 25 26 26
18 20 22 23 22 19 16 14 12 10 9 8 8 8 10 11 14 17 19 20 22 25 27 28 28 29 29 29 30 31 32 32 31 30 29 28 27 25 25 26 26 26 26 26 27 29 28 27 28 29 28 26 27 30 30 30 29 29 29 28 27 27 26 26 25 24 24 25 25 25 25 26 25 24 23 23 23 23 24 25 25 26 26 27 28 28
17 19 21 21 19 19 19 19 17 15 14 12 11 10 10 9 11 13 15 16 18 21 23 25 26 27 28 29 31 32 33 32 31 31 30 30 29 28 26 26 26 27 27 29 31 32 32 30 29 30 31 30 28 30 33 33 32 31 30 29 27 27 26 25 25 25 25 26 26 27 27 27 25 25 24 24 25 25 26 27 28 29 29 30 30 31
17 18 18 18 18 17 18 19 18 17 15 13 13 12 12 12 13 14 14 14 15 17 19 20 21 22 23 26 29 32 32 31 30 29 29 29 29 29 29 28 29 29 30 31 31 31 32 32 31 30 30 30 29 31 35 36 35 32 31 30 29 27 26 25 26 26 26 26 27 28 27 26 26 26 27 28 29 29 30 30 31 32 32 33 33 34
15 17 17 17 16 16 16 17 17 17 15 14 13 13 14 15 15 16 16 16 17 17 18 18 19 20 21 23 26 28 28 28 27 25 25 26 27 28 29 29 28 28 29 30 30 27 25 27 28 28 27 26 26 27 30 32 31 29 29 29 29 27 25 24 25 25 25 26 26 27 28 29 30 30 31 31 32 33 33 34 35 36 36 37 37 38
13 14 16 17 17 17 17 17 17 17 17 16 15 15 15 15 16 17 18 19 19 20 20 19 19 20 21 22 23 24 25 26 26 25 26 27 27 27 28 29 28 27 27 29 31 29 25 22 23 24 24 23 23 24 25 26 25 24 24 24 25 25 24 24 24 25 26 28 30 32 33 34 34 34 34 35 35 36 36 37 37 38 39 40 40 41
14 15 16 16 17 17 18 18 18 18 17 17 17 17 16 16 17 18 20 21 21 21 21 22 22 22 22 23 23 23 24 24 25 26 28 29 29 28 28 29 29 28 28 28 29 29 27 25 25 26 26 26 27 29 30 30 30 30 30 30 29 29 30 30 30 31 31 33 35 36 37 37 38 38 39 40 40 40 40 41 41 42 42 43 43 44
17 17 17 17 18 17 18 18 18 19 17 15 14 14 15 17 18 18 19 21 22 22 21 22 23 24 25 25 25 25 26 26 26 27 28 29 30 30 30 31 30 30 30 30 30 30 31 31 31 30 29 29 31 33 34 34 34 33 33 33 33 32 32 32 33 34 34 35 37 38 39 40 40 40 41 41 41 41 41 41 41 42 42 42 43 44
19 20 19 19 20 20 19 19 19 20 19 18 17 16 16 18 20 19 18 18 20 21 21 21 23 26 28 27 27 27 27 27 28 28 29 29 30 31 32 33 33 32 32 33 33 34 34 33 32 31 30 30 31 33 34 33 33 32 32 32 32 32 31 30 31 31 32 33 34 36 36 37 37 37 38 38 38 38 38 39 39 39 39 40 40 41
20 21 21 21 22 21 22 21 21 21 21 21 21 21 20 20 21 21 20 19 19 20 21 22 24 27 29 28 28 29 29 29 29 29 30 30 31 32 33 33 33 34 33 33 33 32 32 32 32 31 31 31 31 31 32 32 31 31 30 29 29 29 29 29 29 29 29 29 30 31 32 33 33 34 35 35 36 36 37 37 37 37 38 39 40 41
20 20 21 21 21 22 22 23 24 24 24 23 23 23 24 23 23 23 23 23 21 22 23 24 25 28 29 30 30 31 31 31 31 30 31 31 31 31 32 33 33 33 33 33 33 32 32 31 31 31 31 31 30 30 30 30 30 29 29 29 29 29 29 29 29 30 30 30 31 31 31 32 33 33 34 35 35 36 37 37 38 38 39 40 41 43
15 16 18 19 19 19 20 21 23 24 25 25 24 23 22 23 23 23 24 24 25 25 25 26 26 28 30 32 33 34 35 35 34 33 33 32 31 31 31 31 32 32 32 32 32 32 32 32 32 32 31 31 31 31 31 31 31 31 31 31 31 31 32 32 32 32 33 33 34 34 35 35 36 37 38 38 39 39 40 41 41 42 43 44 45 46
4 7 10 13 15 16 17 19 20 21 23 24 25 25 23 23 24 24 24 25 28 28 28 29 28 29 30 32 34 36 37 38 36 35 33 33 33 33 33 33 33 33 33 33 33 33 33 33 33 33 33 33 33 33 34 34 34 34 34 35 34 35 35 35 36 36 37 37 38 38 39 40 40 41 41 42 43 43 44 45 46 46 47 48 49 50
Wind_Direction
251 252 255 256 254 251 247 247 249 251 251 248 247 245 243 238 231 230 235 239 243 242 239 240 241 241 239 235 236 238 238 240 242 244 247 249 251 252 253 252 250 252 259 267 278 281 270 259 255 252 255 254 250 255 256 257 258 262 262 254 252 250 245 235 220 223 233 235 240 245 247 246 249 257 262 262 260 258 252 243 237 235 235 235 234 237
250 252 254 253 250 248 247 248 250 249 247 245 244 243 242 240 231 228 236 241 244 245 244 244 245 246 245 242 241 242 242 242 243 245 247 249 250 252 254 254 252 252 256 261 269 274 263 251 245 235 233 234 222 227 240 247 244 243 245 247 252 253 250 247 238 234 237 240 245 249 249 247 246 254 261 260 257 253 247 242 239 237 236 236 236 238
250 252 253 250 247 247 248 248 247 245 244 243 243 243 242 242 236 229 234 243 246 247 247 247 249 249 248 246 245 245 245 244 243 244 246 248 249 251 252 254 254 253 255 257 262 264 253 243 240 231 226 225 218 216 223 235 237 236 235 237 247 252 252 250 246 243 243 246 249 247 245 243 243 251 257 255 253 249 247 244 241 238 237 236 236 237
249 251 251 250 248 247 246 245 243 242 241 240 242 244 243 241 239 232 234 242 246 248 249 250 251 250 248 247 245 245 245 243 242 243 245 248 250 251 251 250 250 250 251 252 253 251 243 238 239 234 228 223 218 217 219 227 232 235 236 236 243 251 254 252 247 247 247 242 241 240 240 240 242 247 249 249 248 247 248 246 241 239 237 234 233 234
247 249 251 252 250 245 242 240 239 238 238 240 242 246 246 240 236 233 233 240 245 247 249 251 250 246 243 244 244 244 244 242 242 243 245 248 250 249 247 245 245 243 242 242 241 239 234 232 235 233 229 225 217 214 216 220 225 230 234 235 239 246 254 254 249 247 242 231 232 237 240 242 242 243 244 245 247 248 248 244 240 238 236 234 234 236
247 249 250 252 250 246 242 238 235 235 235 239 244 247 246 238 231 230 231 237 244 247 246 248 249 243 237 240 243 245 244 240 240 242 244 246 246 243 243 243 242 239 238 239 238 236 230 228 232 232 227 223 216 213 213 215 219 225 228 231 234 238 246 251 249 245 231 224 229 236 239 242 243 244 246 247 248 249 244 239 237 236 236 237 238 240
245 248 250 252 251 247 242 237 233 233 234 235 239 241 240 233 226 227 230 234 240 245 246 248 250 242 234 237 241 244 245 241 238 239 241 240 239 237 236 237 237 236 237 238 238 236 232 231 232 228 222 219 216 213 212 213 217 221 224 225 226 229 237 243 245 241 233 231 236 240 242 243 244 248 249 250 251 247 240 238 238 237 237 237 239 242
244 247 250 251 250 245 241 237 231 229 229 229 233 235 235 230 225 226 230 233 238 243 245 250 253 247 235 235 242 244 245 245 241 237 237 236 233 230 230 232 233 232 230 230 231 230 228 227 226 224 220 216 216 214 212 214 218 221 223 223 222 224 229 233 235 235 235 238 240 242 243 243 245 248 249 250 250 246 243 242 242 240 238 238 241 242
234 238 242 244 244 240 234 228 223 222 225 227 231 234 233 231 228 230 233 235 237 241 243 248 253 253 241 234 241 244 248 254 248 238 232 229 226 224 226 230 231 227 222 222 225 225 223 220 220 223 218 213 215 214 213 217 221 222 224 224 224 225 228 230 232 233 235 238 240 241 242 242 242 243 246 247 247 246 246 246 246 244 241 242 242 237
229 233 238 242 242 234 223 219 219 220 224 227 231 235 235 233 233 235 237 238 240 241 242 248 252 254 248 238 242 247 251 254 247 237 228 222 222 225 226 226 224 218 214 216 221 221 219 215 216 219 215 212 215 214 214 220 222 223 224 225 227 228 231 232 233 234 236 238 239 239 238 236 237 240 242 243 243 245 247 246 247 246 243 243 238 230
229 234 239 243 240 229 218 218 219 220 224 228 233 237 238 237 237 240 241 242 244 242 242 249 254 254 251 245 246 251 250 233 223 226 228 223 221 223 222 217 214 211 211 216 220 220 218 216 215 215 210 210 216 216 216 220 222 222 224 226 229 231 233 233 232 232 234 236 236 237 234 232 234 238 240 241 241 244 245 244 244 244 242 240 235 228
234 238 240 239 234 226 220 219 220 221 226 230 234 238 240 241 239 241 244 245 247 244 241 248 253 252 250 246 246 250 243 218 206 212 223 224 221 220 218 215 214 214 214 219 223 223 224 222 217 211 209 215 221 220 220 221 222 223 225 227 229 233 235 233 230 228 230 233 233 233 231 230 233 237 240 241 243 244 243 242 241 241 239 237 234 230
238 238 238 235 229 224 220 219 219 223 228 232 237 239 241 243 242 243 245 247 249 246 242 246 248 247 246 243 243 245 236 215 206 209 217 223 224 220 218 218 220 223 224 227 231 232 235 231 219 212 220 231 230 229 228 225 223 224 226 228 231 235 234 232 230 225 225 228 227 225 226 227 231 236 240 242 243 242 240 240 240 240 239 237 236 233
233 235 234 233 229 225 221 221 223 228 232 235 238 240 241 243 244 246 249 250 249 245 244 244 241 240 242 240 239 240 234 220 211 211 215 222 228 227 224 225 226 232 237 239 242 244 244 236 221 218 228 238 238 242 240 231 225 225 227 231 235 234 230 231 231 222 217 222 222 221 224 227 231 236 239 240 240 239 238 239 239 240 242 240 238 234
229 231 231 229 226 225 224 225 228 231 232 233 235 237 238 241 244 248 250 250 248 245 244 243 238 236 239 238 236 236 233 226 218 217 218 220 226 229 230 232 235 238 241 245 250 254 253 238 222 220 230 238 238 245 245 234 227 225 227 233 237 233 229 231 229 218 216 224 227 226 228 231 235 238 238 239 240 237 234 235 236 238 240 240 237 234
228 230 228 223 219 219 221 222 226 229 231 234 236 238 241 244 245 247 249 250 250 248 247 245 240 236 236 236 236 234 231 227 224 223 221 220 222 225 227 232 238 241 244 248 254 256 252 240 226 222 229 235 234 241 243 235 230 232 234 236 237 233 229 228 224 219 222 229 235 236 232 231 234 236 238 240 238 232 228 229 232 237 239 239 237 236
225 228 227 221 215 216 218 220 224 227 229 232 238 241 243 246 245 247 250 252 253 252 249 248 243 236 234 234 234 234 229 226 225 225 223 219 219 221 224 229 235 241 246 249 254 255 250 243 235 229 228 231 233 238 241 236 234 238 240 242 241 235 231 230 225 224 230 232 234 236 233 231 229 230 235 235 230 228 228 228 233 238 239 238 237 237
220 223 224 219 215 215 217 220 224 227 228 229 234 239 240 242 244 246 249 250 253 252 249 248 242 236 234 232 233 235 230 225 222 224 227 224 223 225 228 232 239 244 248 249 252 253 249 246 242 232 227 230 236 241 242 241 240 240 243 250 250 239 235 236 228 224 230 231 231 235 235 232 229 227 230 229 227 232 232 227 229 234 233 233 234 235
215 219 221 218 215 216 218 220 223 227 229 229 231 234 237 240 243 245 246 248 251 253 250 247 242 236 233 230 232 235 233 228 225 225 228 229 231 233 235 241 247 250 251 250 250 247 243 242 240 230 226 232 241 244 246 248 248 243 241 247 251 247 243 241 231 230 237 235 232 236 238 234 229 226 227 226 229 236 234 225 226 229 228 230 231 231
217 218 220 218 216 217 219 220 223 227 230 230 230 232 235 238 239 241 243 244 245 247 249 246 241 237 233 230 230 232 232 231 230 230 231 233 235 237 242 248 254 255 252 251 250 243 235 233 231 226 226 234 242 246 250 252 251 245 240 240 242 248 248 240 234 237 240 237 233 234 234 231 226 226 228 226 229 238 236 229 231 236 234 232 229 229
222 219 220 220 218 218 220 221 223 226 228 229 229 233 236 238 238 238 239 240 239 240 242 241 238 236 235 233 231 233 234 234 234 235 235 236 237 239 244 248 252 255 254 256 254 236 222 220 221 225 229 236 243 246 246 249 247 241 240 239 237 239 238 231 232 236 237 236 237 235 232 226 221 224 228 226 228 236 239 237 240 242 236 231 228 230
227 222 221 223 222 220 220 222 224 225 226 226 227 232 235 235 235 236 237 239 239 238 239 238 237 236 237 238 235 235 238 238 240 240 239 240 241 245 249 252 255 256 256 261 255 227 213 216 223 229 232 234 239 237 234 239 243 240 238 238 238 240 238 232 231 233 232 233 237 241 238 231 223 221 224 227 230 235 238 239 240 238 234 231 230 233
230 224 221 223 224 222 221 223 225 225 225 225 227 230 231 230 230 233 236 238 239 240 241 241 242 242 241 243 243 243 243 242 244 245 246 248 250 254 256 256 260 260 255 255 244 221 215 221 225 230 230 228 231 233 233 238 242 241 238 235 234 237 237 237 237 236 231 230 233 238 238 234 230 226 223 224 227 229 233 235 233 231 230 231 233 236
232 226 221 222 224 224 223 224 226 227 226 225 227 230 230 229 230 233 235 237 238 240 243 245 247 248 247 248 248 249 249 249 250 250 252 253 255 259 259 254 259 259 244 237 228 216 216 221 224 228 228 226 228 234 240 243 242 242 241 239 239 238 236 235 237 239 235 233 234 235 235 233 230 228 227 227 227 228 231 233 232 228 228 231 234 239
233 229 223 222 223 225 225 225 226 228 227 226 226 229 231 231 233 234 236 238 239 240 242 245 248 250 250 251 252 253 253 252 252 252 254 256 256 260 262 257 259 253 225 219 221 218 218 220 223 224 226 227 230 235 241 242 240 241 241 240 241 243 241 234 232 236 237 237 237 236 236 234 228 224 224 227 230 231 233 234 232 228 228 231 235 239
234 231 226 224 223 225 227 228 228 229 229 227 226 229 232 233 235 236 236 238 240 242 243 246 249 250 249 251 254 258 259 253 249 251 254 258 257 259 263 258 257 256 230 221 224 223 220 219 220 222 225 230 234 238 242 240 239 239 240 240 239 240 242 239 235 236 237 237 237 234 236 235 230 225 225 230 237 239 239 238 235 232 231 234 239 244
236 234 229 226 224 225 228 230 230 229 229 228 227 229 232 235 236 236 237 239 240 241 244 246 249 250 247 248 251 255 258 251 245 246 250 253 255 257 259 254 250 259 254 238 230 224 218 215 216 219 223 227 232 238 242 242 240 238 239 241 239 236 240 243 243 241 240 239 237 235 236 236 232 231 233 239 243 244 245 243 239 236 234 235 240 247
238 233 228 227 225 224 226 228 229 229 229 229 229 230 232 235 236 236 237 240 240 241 243 245 247 249 247 247 250 252 255 251 245 244 246 249 253 256 257 253 250 258 260 243 228 215 207 206 209 213 217 221 225 233 241 245 243 239 237 239 240 237 239 244 249 247 242 239 235 235 239 240 239 239 240 243 245 246 248 246 241 236 235 237 241 246
236 229 225 226 225 224 225 227 229 230 230 230 231 232 233 234 236 236 237 240 241 242 244 245 246 248 248 248 251 252 253 252 248 246 246 248 254 258 259 258 257 259 261 247 226 213 206 206 209 212 217 221 224 232 243 247 244 239 235 235 235 233 231 237 244 244 242 240 235 233 237 237 237 240 242 243 243 244 245 245 242 237 234 235 239 243
233 232 230 228 225 223 224 225 227 229 231 232 233 234 235 235 235 236 238 240 243 244 245 246 246 247 248 249 251 252 253 252 250 248 247 246 252 258 258 256 255 255 253 239 221 213 210 207 207 211 218 225 229 234 242 245 244 242 238 233 230 226 224 232 243 247 248 248 242 238 240 237 233 235 235 235 238 241 243 243 240 238 238 239 242 244
231 241 248 244 235 228 224 223 225 228 231 233 234 235 236 236 236 237 239 241 244 245 245 246 246 247 248 248 249 251 251 250 248 247 248 250 253 256 255 248 244 244 238 224 215 214 216 218 219 218 219 227 233 235 237 239 241 242 238 233 230 229 230 237 246 250 247 244 242 241 240 237 236 234 232 233 238 242 246 246 244 245 248 249 246 242
246 256 263 262 254 242 232 227 227 230 233 235 236 235 235 235 236 236 238 241 243 245 246 247 247 247 248 247 247 249 250 250 248 247 250 255 256 253 249 242 234 228 222 215 213 215 221 230 229 220 218 227 235 236 236 235 236 237 236 235 236 238 240 243 248 249 241 236 238 240 238 238 240 237 232 235 240 243 247 250 248 246 246 242 239 239
257 262 264 261 255 250 244 237 234 235 237 238 239 238 235 234 235 236 237 240 242 245 248 249 249 249 249 249 249 249 250 250 249 246 248 252 252 247 243 240 234 228 224 223 224 227 234 236 228 220 224 233 238 241 241 239 235 232 231 235 238 240 242 244 245 245 241 239 240 240 238 236 236 234 231 233 239 243 246 244 237 232 234 236 237 240
255 259 260 258 253 246 243 240 237 236 237 240 242 239 233 232 234 236 238 239 241 244 247 250 252 252 251 251 252 252 252 250 246 244 245 247 247 244 241 239 236 236 237 237 239 243 246 242 231 227 233 238 238 240 241 235 227 222 224 231 238 242 244 246 246 242 239 239 239 238 235 229 226 230 231 229 232 238 243 243 237 238 243 245 240 236
250 251 251 251 249 244 240 238 237 237 238 240 241 237 232 231 234 237 239 240 241 243 245 247 250 252 253 252 252 253 253 251 247 244 244 244 243 242 242 241 239 241 243 243 241 242 246 245 237 232 233 234 233 234 234 230 226 226 229 234 241 247 249 250 249 243 238 236 236 235 234 232 231 234 236 236 239 245 251 255 257 255 251 248 245 241
241 240 241 245 248 243 233 227 229 235 238 240 239 235 232 233 236 238 239 241 241 242 243 245 247 249 251 252 252 253 253 253 251 250 248 246 242 241 242 241 240 241 244 244 243 245 250 255 248 237 233 234 232 231 233 236 238 241 242 243 245 248 250 251 251 249 245 241 239 238 237 237 237 237 237 240 245 250 253 256 258 259 258 255 251 247
232 232 235 241 245 241 228 215 213 217 222 227 231 232 233 235 238 240 240 242 243 243 243 244 245 246 248 249 248 248 250 251 251 251 251 249 244 241 243 243 242 244 245 246 248 249 250 253 251 243 239 240 239 236 237 239 243 247 249 250 250 250 249 250 251 251 250 247 244 241 239 239 239 239 239 241 245 249 252 254 256 257 256 254 251 249
228 231 233 239 245 248 244 237 229 219 212 210 214 223 230 235 238 241 242 244 246 247 245 245 245 245 245 246 245 244 246 247 248 248 248 246 242 240 242 243 243 245 247 247 248 248 245 248 251 249 246 243 241 240 241 241 243 247 250 252 254 254 252 251 250 251 251 249 246 243 241 241 240 240 241 243 246 249 252 254 256 256 254 253 252 251
232 233 236 243 250 251 245 244 242 234 229 222 216 220 227 232 235 238 240 240 242 245 245 243 244 244 243 243 242 241 243 245 246 246 244 241 239 240 242 242 242 245 247 248 247 247 247 246 246 244 244 242 240 240 243 244 245 246 248 251 253 254 254 253 252 251 250 249 247 244 242 242 242 241 243 245 248 252 254 256 257 257 257 257 255 254
245 243 244 249 255 252 248 252 255 252 248 245 239 234 232 235 237 237 235 229 229 236 239 239 240 244 245 244 242 240 240 243 245 246 244 240 240 242 243 242 242 243 246 247 247 248 248 245 241 239 239 240 239 239 242 246 246 246 247 248 250 252 254 255 254 252 250 248 246 243 240 241 242 243 245 248 251 254 257 259 259 259 259 259 258 257
251 248 247 251 255 252 250 252 256 260 263 260 257 255 249 244 240 236 233 225 222 229 235 236 237 239 240 241 242 241 240 240 242 244 244 242 241 240 238 238 238 238 240 243 245 246 245 243 241 240 240 241 244 246 246 246 245 245 245 244 245 246 249 250 251 250 249 247 244 242 242 242 244 247 250 254 257 258 259 260 262 262 261 261 260 261
243 241 241 244 247 246 244 246 250 255 259 257 255 254 251 245 240 238 237 233 226 226 229 231 232 232 229 230 234 237 239 240 241 241 241 241 239 236 234 239 241 237 235 238 241 240 238 238 240 243 246 247 249 250 248 244 242 242 242 242 242 244 246 246 245 245 246 245 244 243 243 245 249 253 256 258 260 260 261 261 262 263 263 263 263 263
231 234 234 235 238 237 234 238 244 247 250 250 246 244 243 241 241 242 241 239 236 234 232 231 232 232 230 230 231 233 234 234 235 233 232 233 234 233 234 238 239 235 231 233 236 235 231 230 233 237 240 240 238 238 238 236 235 237 239 240 241 243 245 244 243 243 244 244 244 245 248 251 255 257 258 259 260 261 262 263 263 264 265 265 264 263
232 235 235 236 237 237 234 236 239 240 244 245 242 239 238 236 237 240 240 238 238 239 239 237 237 238 238 238 237 236 234 233 231 228 227 227 228 229 230 230 229 228 227 229 233 232 228 229 234 236 235 233 231 232 234 235 236 239 242 244 245 246 248 249 249 249 250 251 253 255 257 259 261 262 263 264 265 265 265 264 264 264 264 264 265 264
243 240 239 238 238 238 238 238 239 239 240 241 241 240 237 233 234 239 242 242 242 242 241 239 238 238 240 241 241 239 238 236 234 233 232 232 231 228 226 224 223 224 225 228 231 234 237 245 254 255 252 248 248 250 253 256 257 258 259 259 258 258 259 259 258 256 256 256 258 259 260 261 262 264 266 267 267 266 265 264 263 263 262 263 263 263
245 243 242 240 239 239 239 239 238 238 237 234 231 229 228 228 230 234 239 243 243 241 241 242 241 239 238 238 240 240 240 239 238 237 236 237 236 233 231 231 231 233 235 237 241 247 253 259 263 264 262 261 261 262 265 267 268 267 267 266 265 264 262 260 258 257 256 257 258 259 260 262 263 264 266 267 267 268 268 268 268 268 267 267 267 267
246 246 244 242 241 241 240 239 237 237 235 228 220 217 217 218 221 222 226 234 240 240 238 238 241 242 241 239 239 240 241 241 241 241 240 240 239 239 238 238 239 240 242 244 248 252 256 259 262 263 263 262 263 264 266 268 268 267 267 267 267 267 265 263 261 259 258 257 257 258 260 261 263 263 264 265 266 267 268 269 271 271 272 272 272 272
246 245 245 244 243 242 242 241 239 238 237 233 230 230 229 226 226 227 227 230 236 240 238 236 238 242 243 243 241 241 241 241 241 242 242 242 242 242 243 243 243 244 245 247 249 252 254 255 256 258 258 258 258 259 260 261 263 264 264 264 264 265 266 266 266 265 264 263 262 262 262 263 263 264 264 264 265 266 267 268 269 270 270 271 272 272
251 249 248 247 245 244 244 243 242 242 242 240 239 241 241 239 237 237 236 235 235 236 238 239 240 242 244 244 243 242 242 243 242 243 243 244 244 245 246 246 247 247 247 248 249 250 252 253 254 255 256 257 258 259 260 260 261 263 265 266 266 267 267 268 269 269 270 270 270 270 269 269 269 269 268 269 269 269 270 270 270 271 271 271 271 271
261 258 256 254 253 252 251 249 248 246 246 245 243 241 240 241 241 239 237 236 235 232 231 231 234 239 243 244 244 243 242 241 241 241 242 243 244 246 246 247 247 248 248 249 250 250 252 253 255 256 257 258 259 261 262 263 264 265 265 266 266 267 268 269 269 270 270 271 272 272 273 273 273 274 274 274 274 274 274 274 274 274 274 273 273 273
305 278 267 262 260 258 257 256 255 253 250 248 246 241 234 231 234 236 234 233 235 234 232 231 231 234 238 242 244 245 245 245 244 244 244 244 244 244 245 246 247 248 249 250 252 253 254 255 257 257 258 259 259 260 261 262 263 264 265 265 266 266 267 268 268 269 269 270 271 271 272 272 273 273 274 274 274 274 274 275 275 275 275 274 274 274
Height
5730 5731 5732 5733 5734 5734 5735 5736 5738 5739 5740 5741 5741 5742 5744 5746 5748 5749 5748 5748 5748 5748 5750 5751 5751 5752 5756 5760 5761 5760 5761 5763 5764 5766 5768 5771 5773 5776 5780 5782 5784 5785 5784 5785 5787 5787 5785 5785 5785 5785 5785 5786 5786 5787 5788 5789 5790 5791 5793 5794 5794 5794 5795 5795 5795 5796 5797 5798 5799 5799 5800 5801 5801 5802 5802 5803 5803 5803 5804 5804 5805 5805 5806 5806 5807 5807
5726 5728 5729 5729 5730 5730 5732 5733 5735 5736 5737 5738 5739 5740 5741 5743 5745 5746 5746 5746 5745 5745 5748 5749 5749 5751 5754 5757 5758 5758 5759 5761 5763 5764 5766 5768 5770 5773 5777 5779 5781 5782 5782 5783 5786 5785 5784 5784 5784 5784 5784 5785 5785 5786 5787 5788 5789 5790 5791 5792 5792 5792 5793 5794 5795 5795 5795 5796 5797 5798 5798 5798 5799 5799 5800 5801 5801 5801 5802 5802 5803 5804 5804 5805 5805 5806
5724 5725 5726 5726 5726 5728 5729 5730 5732 5733 5734 5735 5736 5737 5740 5741 5742 5743 5743 5743 5742 5742 5745 5746 5746 5749 5752 5754 5754 5755 5756 5759 5760 5761 5762 5764 5767 5770 5774 5775 5777 5779 5779 5781 5783 5783 5782 5782 5782 5783 5783 5783 5784 5785 5786 5787 5788 5788 5789 5790 5790 5790 5791 5792 5794 5794 5794 5794 5795 5795 5795 5796 5796 5797 5798 5799 5799 5800 5800 5801 5802 5802 5803 5803 5804 5804
5721 5722 5722 5722 5724 5725 5726 5728 5729 5730 5731 5732 5734 5735 5738 5739 5739 5740 5741 5740 5739 5740 5742 5744 5744 5746 5749 5750 5751 5752 5753 5756 5757 5758 5759 5761 5764 5768 5770 5771 5773 5775 5777 5778 5780 5781 5781 5780 5781 5781 5782 5782 5783 5784 5785 5786 5786 5787 5788 5788 5788 5788 5789 5789 5791 5792 5792 5792 5793 5793 5793 5793 5794 5795 5796 5797 5797 5798 5799 5800 5800 5800 5801 5801 5802 5803
5717 5718 5718 5719 5721 5722 5723 5724 5725 5727 5728 5730 5731 5734 5735 5736 5736 5737 5738 5736 5736 5738 5740 5740 5740 5744 5747 5747 5748 5749 5750 5753 5754 5755 5757 5759 5762 5765 5766 5767 5770 5772 5773 5775 5776 5778 5778 5778 5779 5779 5780 5781 5781 5782 5783 5784 5785 5785 5786 5787 5787 5787 5786 5786 5787 5789 5789 5789 5790 5790 5791 5791 5792 5793 5794 5794 5795 5796 5797 5798 5798 5798 5799 5799 5800 5801
5713 5714 5715 5716 5718 5719 5720 5721 5722 5724 5726 5728 5730 5731 5732 5733 5733 5734 5734 5733 5734 5736 5737 5737 5738 5742 5744 5744 5745 5746 5747 5750 5751 5753 5755 5757 5759 5761 5763 5765 5767 5769 5771 5772 5773 5775 5775 5776 5777 5778 5778 5779 5779 5780 5781 5782 5783 5784 5784 5785 5785 5785 5785 5784 5784 5785 5786 5787 5788 5788 5789 5789 5790 5791 5792 5793 5793 5795 5795 5796 5796 5796 5797 5798 5798 5799
5710 5711 5712 5713 5715 5716 5717 5718 5720 5722 5724 5726 5728 5728 5728 5729 5730 5730 5730 5731 5732 5734 5734 5734 5736 5739 5742 5742 5743 5743 5744 5746 5748 5750 5752 5754 5756 5758 5760 5762 5764 5766 5768 5769 5771 5772 5773 5774 5775 5776 5776 5776 5777 5778 5779 5780 5781 5782 5782 5783 5784 5784 5783 5783 5783 5783 5784 5785 5785 5786 5786 5787 5788 5789 5790 5791 5792 5793 5793 5793 5794 5794 5795 5796 5796 5797
5707 5708 5710 5710 5712 5713 5714 5717 5719 5720 5722 5724 5724 5724 5725 5727 5727 5727 5727 5728 5730 5731 5732 5733 5734 5737 5740 5741 5741 5741 5742 5744 5745 5747 5748 5750 5753 5755 5757 5758 5760 5763 5765 5767 5768 5770 5771 5772 5773 5773 5773 5773 5774 5775 5777 5778 5778 5779 5780 5780 5781 5782 5782 5782 5782 5782 5782 5782 5783 5783 5784 5785 5786 5787 5788 5789 5790 5791 5791 5791 5791 5792 5793 5794 5795 5796
5704 5705 5706 5707 5708 5710 5712 5715 5716 5717 5719 5721 5721 5722 5723 5724 5724 5725 5725 5727 5728 5728 5731 5733 5733 5734 5737 5739 5739 5739 5741 5741 5742 5744 5745 5747 5750 5751 5753 5755 5757 5759 5762 5764 5765 5766 5767 5768 5769 5769 5769 5770 5771 5773 5774 5775 5776 5776 5777 5777 5778 5779 5779 5779 5779 5780 5780 5780 5780 5781 5781 5783 5784 5785 5785 5786 5787 5788 5788 5789 5790 5791 5792 5793 5794 5794
5700 5701 5702 5704 5705 5708 5711 5712 5712 5714 5717 5718 5719 5720 5721 5722 5723 5723 5723 5725 5726 5727 5731 5732 5731 5732 5735 5737 5737 5738 5739 5740 5740 5741 5742 5744 5746 5748 5750 5751 5753 5755 5758 5759 5761 5762 5763 5764 5765 5765 5766 5767 5768 5770 5771 5772 5772 5773 5773 5774 5775 5775 5776 5776 5776 5776 5776 5777 5777 5778 5779 5781 5781 5782 5782 5784 5785 5785 5786 5787 5788 5789 5791 5792 5793 5794
5698 5699 5700 5701 5704 5706 5708 5709 5710 5713 5715 5716 5717 5718 5719 5720 5721 5721 5722 5723 5724 5726 5731 5730 5728 5730 5733 5735 5735 5736 5737 5738 5739 5739 5740 5741 5743 5744 5746 5747 5749 5751 5753 5754 5755 5756 5757 5757 5758 5760 5762 5764 5766 5767 5768 5768 5769 5769 5770 5771 5771 5772 5771 5771 5772 5772 5773 5773 5774 5776 5777 5778 5778 5779 5780 5781 5782 5783 5785 5786 5787 5788 5790 5791 5792 5793
5696 5697 5698 5700 5702 5704 5706 5707 5709 5711 5713 5714 5715 5716 5717 5718 5719 5719 5720 5721 5722 5726 5729 5727 5726 5728 5731 5733 5733 5733 5735 5737 5738 5738 5739 5740 5741 5743 5744 5745 5746 5748 5750 5751 5752 5754 5755 5755 5757 5760 5762 5763 5764 5764 5765 5765 5766 5766 5767 5767 5767 5768 5767 5766 5767 5767 5768 5770 5771 5773 5774 5775 5776 5776 5777 5779 5780 5782 5783 5784 5785 5787 5789 5790 5791 5792
5694 5694 5696 5698 5700 5701 5703 5704 5706 5709 5711 5712 5713 5714 5715 5715 5716 5717 5718 5719 5721 5724 5725 5724 5724 5725 5729 5731 5731 5731 5733 5735 5736 5737 5738 5740 5741 5742 5744 5745 5747 5748 5749 5751 5752 5754 5756 5759 5761 5762 5763 5762 5762 5763 5763 5763 5763 5763 5763 5763 5763 5764 5763 5762 5761 5762 5764 5767 5769 5770 5771 5772 5773 5774 5775 5777 5778 5780 5781 5783 5784 5786 5787 5789 5790 5791
5690 5692 5693 5696 5698 5700 5701 5703 5705 5708 5709 5710 5710 5711 5712 5713 5714 5715 5716 5718 5720 5721 5721 5721 5721 5723 5726 5728 5728 5729 5731 5733 5734 5736 5738 5739 5741 5743 5744 5745 5747 5749 5750 5751 5752 5754 5756 5758 5760 5761 5761 5761 5761 5761 5761 5761 5761 5760 5760 5760 5759 5759 5760 5759 5757 5758 5762 5765 5767 5768 5769 5770 5771 5772 5773 5774 5776 5778 5780 5781 5783 5784 5786 5788 5789 5790
5688 5689 5691 5694 5696 5698 5700 5702 5704 5705 5705 5706 5707 5707 5709 5711 5713 5714 5714 5715 5717 5718 5718 5718 5719 5721 5724 5725 5726 5728 5729 5730 5732 5734 5737 5739 5740 5742 5744 5745 5747 5748 5750 5751 5751 5753 5754 5755 5755 5757 5758 5758 5758 5758 5758 5758 5757 5756 5756 5756 5756 5757 5759 5758 5756 5758 5762 5764 5766 5767 5768 5769 5770 5771 5771 5773 5774 5776 5779 5780 5782 5783 5784 5786 5788 5789
5686 5688 5690 5692 5694 5696 5698 5700 5700 5701 5702 5703 5704 5706 5708 5710 5711 5711 5712 5713 5714 5715 5715 5716 5718 5720 5722 5722 5724 5726 5727 5729 5730 5733 5736 5737 5739 5740 5742 5744 5746 5747 5748 5748 5749 5750 5751 5751 5752 5753 5754 5754 5754 5754 5754 5753 5753 5753 5753 5754 5755 5756 5757 5757 5757 5760 5763 5764 5766 5766 5767 5768 5769 5769 5770 5771 5773 5775 5778 5779 5780 5781 5783 5784 5785 5786
5684 5686 5688 5690 5692 5694 5695 5696 5697 5698 5700 5701 5702 5705 5707 5708 5708 5709 5710 5711 5712 5713 5713 5714 5716 5718 5719 5720 5722 5724 5726 5727 5729 5731 5733 5735 5737 5738 5740 5741 5743 5744 5744 5745 5746 5746 5747 5748 5749 5751 5751 5751 5750 5749 5749 5749 5749 5751 5752 5753 5754 5754 5754 5755 5758 5760 5762 5762 5763 5763 5764 5765 5766 5767 5769 5770 5772 5774 5776 5778 5779 5780 5781 5782 5783 5784
5681 5683 5685 5687 5690 5691 5692 5693 5694 5696 5697 5699 5701 5704 5705 5705 5706 5707 5708 5709 5710 5710 5711 5713 5715 5716 5717 5718 5720 5722 5724 5725 5727 5729 5731 5733 5734 5736 5737 5739 5740 5741 5741 5742 5742 5742 5743 5745 5746 5748 5748 5748 5747 5746 5746 5747 5748 5750 5751 5751 5752 5753 5754 5756 5758 5759 5759 5759 5760 5761 5762 5763 5764 5766 5768 5770 5771 5773 5775 5776 5777 5778 5778 5779 5781 5782
5679 5680 5682 5684 5687 5688 5689 5691 5692 5693 5695 5698 5700 5701 5702 5703 5704 5705 5706 5707 5708 5708 5709 5711 5712 5714 5715 5717 5718 5720 5722 5723 5725 5726 5728 5730 5731 5733 5734 5735 5736 5737 5737 5737 5737 5737 5738 5740 5742 5744 5745 5745 5745 5744 5744 5745 5747 5749 5750 5749 5750 5752 5754 5756 5757 5757 5757 5758 5759 5760 5762 5762 5763 5765 5767 5768 5769 5771 5773 5774 5775 5776 5777 5778 5779 5781
5677 5679 5680 5682 5684 5685 5687 5689 5690 5691 5693 5696 5697 5698 5699 5701 5702 5702 5703 5705 5706 5707 5707 5709 5710 5712 5714 5715 5716 5717 5719 5720 5722 5724 5726 5727 5729 5730 5732 5732 5733 5733 5732 5731 5731 5731 5733 5736 5738 5740 5742 5742 5742 5742 5743 5744 5745 5747 5747 5747 5748 5750 5751 5753 5754 5754 5755 5757 5759 5760 5761 5762 5762 5764 5765 5766 5767 5769 5771 5772 5774 5775 5776 5777 5778 5779
5675 5677 5678 5680 5681 5683 5684 5686 5688 5689 5691 5693 5695 5696 5697 5699 5699 5700 5701 5702 5704 5705 5705 5707 5708 5710 5711 5712 5714 5715 5716 5718 5720 5721 5723 5725 5726 5727 5728 5729 5729 5728 5727 5727 5728 5727 5729 5733 5736 5737 5738 5739 5738 5740 5743 5743 5743 5744 5744 5745 5747 5748 5748 5749 5751 5752 5753 5756 5757 5758 5759 5760 5761 5762 5764 5765 5766 5768 5769 5771 5772 5774 5775 5776 5776 5777
5673 5675 5677 5677 5679 5680 5682 5683 5685 5687 5689 5691 5692 5694 5695 5697 5698 5698 5699 5701 5702 5703 5703 5705 5706 5708 5709 5710 5711 5712 5714 5715 5717 5719 5720 5722 5723 5724 5725 5726 5725 5724 5724 5725 5726 5726 5727 5730 5733 5734 5736 5736 5735 5737 5739 5740 5740 5741 5742 5744 5745 5746 5747 5748 5748 5749 5751 5753 5755 5756 5758 5759 5760 5761 5762 5764 5765 5767 5768 5769 5771 5772 5773 5774 5775 5775
5670 5673 5675 5675 5676 5678 5679 5680 5682 5684 5686 5688 5690 5691 5693 5694 5695 5696 5697 5699 5700 5701 5702 5703 5704 5706 5707 5708 5709 5710 5712 5713 5714 5716 5718 5719 5720 5721 5721 5721 5721 5721 5720 5722 5723 5724 5725 5728 5730 5731 5733 5733 5733 5734 5735 5737 5738 5739 5740 5742 5743 5744 5745 5746 5747 5748 5749 5751 5752 5754 5755 5757 5758 5759 5760 5762 5763 5764 5766 5767 5768 5770 5770 5771 5772 5773
5667 5669 5671 5672 5673 5675 5676 5678 5679 5681 5683 5685 5687 5689 5690 5691 5693 5694 5695 5697 5698 5699 5700 5701 5703 5704 5705 5706 5707 5708 5709 5711 5712 5713 5715 5716 5717 5717 5717 5717 5717 5716 5716 5718 5720 5721 5723 5726 5727 5728 5729 5730 5731 5732 5733 5734 5735 5737 5739 5740 5741 5741 5742 5744 5745 5746 5747 5748 5750 5752 5753 5754 5755 5757 5758 5760 5761 5762 5763 5764 5765 5767 5767 5768 5769 5770
5664 5666 5669 5670 5671 5672 5673 5674 5676 5678 5681 5683 5685 5686 5688 5689 5691 5692 5693 5694 5695 5696 5698 5699 5701 5702 5703 5704 5705 5706 5707 5709 5710 5711 5712 5713 5714 5714 5714 5714 5714 5713 5713 5715 5717 5718 5721 5722 5724 5726 5727 5728 5729 5729 5730 5732 5733 5734 5735 5737 5739 5739 5740 5742 5743 5744 5746 5747 5748 5749 5750 5751 5753 5754 5756 5757 5758 5760 5761 5762 5763 5764 5764 5765 5766 5767
5661 5663 5666 5667 5668 5669 5670 5672 5674 5676 5679 5681 5682 5684 5685 5687 5688 5690 5691 5692 5693 5694 5696 5697 5699 5700 5701 5702 5703 5704 5705 5706 5708 5709 5710 5711 5711 5712 5712 5711 5712 5712 5712 5713 5715 5716 5717 5719 5721 5723 5725 5726 5728 5727 5727 5729 5729 5730 5732 5734 5736 5737 5738 5739 5741 5742 5743 5744 5745 5747 5748 5749 5750 5751 5753 5755 5756 5757 5758 5759 5760 5761 5762 5763 5763 5764
5658 5660 5662 5664 5665 5667 5668 5670 5672 5674 5676 5678 5680 5681 5683 5684 5686 5687 5689 5690 5691 5692 5693 5695 5696 5698 5699 5700 5701 5702 5703 5704 5706 5707 5708 5709 5709 5709 5710 5710 5710 5711 5711 5712 5713 5714 5715 5716 5719 5721 5723 5725 5725 5724 5724 5725 5726 5727 5729 5731 5733 5734 5736 5737 5738 5739 5740 5741 5743 5744 5745 5746 5747 5749 5750 5752 5753 5754 5755 5756 5757 5758 5759 5760 5761 5761
5655 5656 5658 5660 5662 5664 5665 5667 5669 5671 5673 5675 5677 5678 5680 5681 5683 5685 5686 5687 5689 5690 5691 5692 5694 5695 5697 5698 5699 5701 5702 5703 5704 5705 5706 5706 5707 5707 5708 5708 5709 5710 5710 5710 5711 5712 5713 5715 5717 5719 5720 5722 5722 5721 5721 5722 5724 5725 5726 5728 5730 5732 5733 5734 5735 5737 5737 5739 5740 5742 5743 5744 5745 5746 5748 5749 5750 5751 5752 5753 5754 5755 5756 5757 5758 5758
5651 5653 5655 5657 5658 5660 5662 5664 5666 5668 5670 5672 5674 5675 5677 5678 5680 5682 5683 5685 5686 5688 5689 5690 5691 5693 5695 5696 5697 5698 5699 5701 5702 5703 5704 5705 5705 5706 5706 5707 5707 5708 5708 5709 5709 5710 5711 5713 5715 5717 5718 5718 5719 5719 5719 5720 5722 5723 5724 5726 5727 5729 5731 5732 5733 5734 5735 5736 5738 5739 5740 5741 5742 5744 5745 5746 5747 5748 5749 5749 5750 5751 5753 5755 5756 5756
5648 5649 5651 5652 5654 5656 5659 5661 5663 5665 5667 5669 5671 5672 5674 5675 5677 5678 5680 5682 5683 5685 5686 5688 5689 5691 5692 5694 5695 5696 5697 5699 5700 5701 5702 5703 5704 5704 5705 5705 5706 5706 5707 5707 5708 5709 5710 5712 5713 5714 5715 5716 5716 5717 5718 5718 5720 5721 5722 5724 5725 5727 5729 5730 5731 5732 5733 5734 5735 5736 5738 5739 5740 5741 5742 5743 5744 5744 5745 5745 5747 5748 5750 5752 5753 5753
5646 5647 5648 5649 5651 5653 5655 5658 5660 5662 5663 5665 5667 5668 5670 5672 5673 5675 5677 5679 5680 5682 5683 5685 5686 5688 5689 5691 5692 5693 5694 5696 5698 5699 5700 5701 5702 5702 5703 5704 5704 5705 5706 5706 5707 5708 5709 5711 5711 5712 5713 5713 5714 5715 5716 5717 5718 5719 5721 5722 5723 5724 5726 5727 5728 5730 5731 5732 5732 5734 5735 5737 5738 5739 5740 5741 5741 5742 5742 5742 5744 5746 5748 5749 5749 5749
5643 5645 5646 5648 5649 5650 5652 5654 5656 5658 5660 5662 5663 5665 5666 5668 5670 5671 5673 5675 5677 5679 5680 5682 5683 5685 5686 5687 5689 5690 5691 5693 5695 5697 5698 5699 5700 5700 5701 5702 5703 5704 5705 5705 5706 5707 5708 5709 5709 5710 5711 5711 5712 5713 5714 5715 5716 5717 5719 5720 5720 5722 5723 5725 5726 5727 5729 5730 5731 5732 5733 5734 5735 5736 5737 5738 5739 5739 5739 5739 5741 5743 5744 5744 5745 5745
5640 5642 5644 5645 5647 5648 5649 5651 5653 5655 5656 5657 5659 5661 5662 5664 5666 5668 5670 5672 5674 5676 5677 5678 5680 5681 5683 5684 5686 5687 5689 5690 5692 5694 5695 5696 5697 5698 5699 5699 5700 5702 5703 5703 5704 5705 5706 5707 5707 5708 5708 5709 5710 5711 5712 5713 5714 5716 5716 5717 5718 5719 5720 5722 5723 5724 5726 5727 5728 5729 5730 5732 5733 5734 5734 5735 5736 5736 5735 5736 5737 5739 5740 5741 5741 5743
5638 5640 5642 5643 5644 5645 5646 5648 5649 5651 5652 5653 5655 5656 5658 5660 5662 5664 5666 5668 5670 5672 5673 5675 5676 5678 5679 5681 5683 5684 5685 5687 5689 5690 5692 5693 5695 5696 5697 5697 5698 5698 5699 5700 5702 5703 5704 5705 5706 5706 5706 5707 5708 5709 5710 5711 5712 5713 5714 5715 5715 5717 5718 5719 5720 5722 5723 5724 5725 5727 5728 5729 5730 5731 5732 5732 5732 5732 5733 5734 5735 5737 5738 5738 5739 5740
5636 5638 5640 5641 5642 5642 5643 5645 5646 5647 5648 5650 5651 5652 5654 5656 5658 5660 5662 5664 5666 5668 5669 5671 5672 5674 5676 5678 5679 5681 5682 5684 5686 5687 5689 5690 5691 5693 5694 5694 5695 5695 5696 5697 5699 5700 5701 5702 5703 5704 5704 5705 5706 5707 5708 5709 5710 5711 5712 5713 5713 5714 5715 5716 5718 5719 5720 5721 5722 5724 5725 5727 5728 5729 5730 5730 5730 5731 5731 5732 5733 5734 5735 5736 5737 5738
5634 5635 5637 5639 5640 5640 5641 5642 5643 5644 5645 5646 5648 5649 5650 5652 5654 5656 5658 5660 5662 5663 5665 5667 5669 5670 5672 5674 5676 5677 5679 5680 5682 5684 5686 5687 5688 5689 5690 5691 5692 5692 5693 5694 5696 5697 5698 5698 5699 5701 5702 5703 5704 5705 5706 5707 5708 5709 5710 5711 5712 5712 5713 5714 5715 5717 5718 5719 5720 5722 5723 5724 5726 5727 5728 5728 5728 5729 5730 5731 5732 5733 5734 5734 5735 5736
5631 5633 5635 5636 5637 5638 5639 5639 5640 5641 5642 5643 5644 5646 5647 5648 5650 5652 5654 5655 5657 5659 5661 5663 5665 5667 5668 5670 5672 5673 5675 5676 5678 5680 5682 5683 5684 5685 5686 5687 5688 5689 5690 5691 5693 5695 5696 5695 5696 5698 5700 5701 5702 5703 5704 5705 5706 5706 5707 5708 5709 5710 5711 5712 5713 5714 5715 5717 5718 5720 5721 5722 5723 5724 5725 5726 5726 5727 5728 5729 5730 5731 5732 5732 5733 5734
5629 5630 5632 5633 5635 5636 5637 5638 5638 5639 5639 5640 5641 5643 5644 5645 5647 5648 5650 5651 5653 5655 5656 5659 5661 5662 5664 5665 5667 5669 5670 5672 5673 5675 5677 5679 5680 5682 5683 5684 5685 5685 5686 5688 5690 5691 5693 5693 5693 5695 5696 5697 5699 5700 5701 5702 5703 5704 5704 5705 5706 5707 5708 5710 5711 5712 5713 5714 5716 5717 5718 5720 5721 5722 5723 5723 5724 5725 5725 5726 5727 5728 5729 5730 5730 5731
5627 5628 5629 5630 5632 5634 5635 5636 5636 5637 5637 5638 5640 5641 5642 5643 5644 5645 5646 5648 5650 5651 5652 5654 5656 5658 5659 5661 5663 5665 5666 5667 5669 5670 5673 5675 5677 5678 5680 5681 5682 5682 5683 5685 5686 5687 5689 5690 5691 5691 5692 5694 5695 5696 5697 5699 5700 5701 5701 5702 5703 5704 5705 5707 5708 5709 5711 5712 5713 5714 5716 5717 5718 5719 5719 5720 5721 5721 5722 5723 5724 5725 5726 5726 5727 5728
5624 5625 5627 5628 5629 5632 5633 5634 5635 5635 5636 5637 5638 5640 5641 5642 5642 5643 5644 5646 5647 5647 5648 5650 5652 5654 5656 5657 5659 5660 5662 5663 5665 5666 5669 5671 5673 5675 5676 5677 5678 5679 5680 5681 5682 5682 5684 5686 5687 5687 5688 5690 5691 5693 5694 5696 5696 5697 5698 5699 5700 5701 5702 5703 5705 5706 5708 5709 5710 5711 5712 5713 5714 5715 5716 5717 5718 5718 5719 5720 5720 5721 5722 5723 5723 5724
5622 5623 5625 5626 5627 5629 5631 5632 5632 5633 5634 5635 5637 5638 5639 5640 5641 5641 5642 5643 5644 5645 5646 5648 5649 5651 5652 5654 5655 5656 5657 5659 5661 5663 5664 5666 5668 5670 5672 5673 5674 5675 5677 5678 5678 5679 5679 5681 5682 5683 5684 5686 5687 5689 5691 5692 5693 5694 5695 5696 5697 5697 5699 5700 5701 5702 5704 5705 5706 5708 5709 5710 5711 5712 5712 5713 5714 5715 5715 5716 5716 5717 5717 5718 5719 5719
5620 5621 5622 5623 5625 5627 5628 5629 5630 5631 5632 5633 5635 5636 5637 5638 5639 5640 5640 5642 5643 5643 5644 5645 5647 5648 5649 5650 5651 5652 5654 5656 5657 5659 5661 5662 5664 5666 5668 5669 5670 5671 5673 5674 5675 5675 5676 5677 5678 5680 5681 5683 5684 5685 5686 5688 5689 5690 5691 5692 5693 5694 5695 5696 5697 5699 5700 5701 5703 5704 5705 5706 5707 5708 5709 5709 5710 5710 5711 5711 5711 5712 5712 5713 5713 5714
5618 5619 5620 5621 5623 5624 5626 5626 5628 5629 5630 5631 5632 5633 5635 5636 5637 5638 5639 5640 5641 5641 5642 5643 5644 5645 5646 5647 5648 5649 5651 5653 5654 5656 5658 5659 5660 5662 5664 5665 5667 5668 5669 5671 5672 5673 5673 5674 5675 5677 5679 5680 5681 5682 5683 5684 5685 5687 5688 5689 5690 5691 5692 5693 5694 5695 5697 5698 5699 5700 5701 5702 5703 5704 5704 5705 5705 5705 5706 5706 5706 5706 5707 5707 5708 5708
5616 5617 5618 5619 5621 5622 5623 5624 5625 5627 5628 5629 5630 5631 5632 5633 5634 5635 5636 5637 5638 5639 5640 5641 5642 5643 5644 5645 5646 5647 5648 5650 5652 5654 5655 5656 5658 5659 5661 5662 5664 5665 5666 5667 5668 5670 5671 5672 5673 5674 5675 5677 5678 5679 5680 5681 5682 5683 5684 5685 5686 5688 5689 5689 5691 5692 5693 5694 5695 5696 5697 5698 5698 5699 5699 5699 5700 5700 5700 5701 5701 5701 5701 5702 5702 5702
5614 5615 5616 5617 5619 5620 5621 5622 5623 5624 5626 5627 5628 5629 5630 5631 5632 5633 5633 5634 5635 5636 5637 5638 5639 5640 5641 5642 5643 5645 5646 5648 5649 5651 5652 5654 5655 5657 5658 5660 5661 5662 5663 5664 5665 5666 5667 5668 5669 5670 5671 5672 5673 5674 5675 5676 5678 5679 5680 5681 5683 5684 5685 5686 5687 5687 5688 5689 5690 5691 5692 5692 5692 5693 5693 5693 5694 5694 5694 5695 5695 5695 5695 5696 5696 5696
5612 5613 5614 5615 5616 5618 5619 5620 5621 5622 5623 5624 5625 5626 5627 5628 5630 5631 5631 5632 5633 5634 5634 5635 5635 5637 5638 5639 5640 5642 5643 5645 5646 5648 5649 5651 5653 5655 5656 5657 5659 5660 5661 5661 5662 5662 5663 5664 5664 5665 5666 5667 5668 5669 5670 5671 5672 5673 5674 5675 5677 5678 5680 5681 5682 5683 5683 5684 5685 5685 5686 5686 5686 5687 5687 5687 5687 5687 5687 5688 5688 5688 5688 5688 5688 5688
5610 5611 5612 5613 5614 5616 5617 5618 5619 5619 5620 5622 5623 5624 5625 5626 5627 5628 5629 5630 5630 5631 5632 5632 5632 5633 5634 5636 5637 5639 5640 5642 5643 5645 5646 5648 5649 5651 5652 5653 5655 5656 5657 5658 5658 5659 5659 5660 5660 5661 5662 5663 5664 5664 5665 5666 5667 5668 5669 5670 5671 5672 5674 5675 5676 5677 5678 5678 5679 5680 5680 5681 5681 5681 5682 5682 5682 5682 5682 5682 5682 5682 5681 5681 5681 5681
5607 5608 5609 5611 5612 5613 5614 5615 5616 5616 5617 5619 5620 5621 5622 5623 5624 5625 5626 5627 5628 5628 5629 5629 5629 5629 5630 5632 5634 5635 5636 5638 5639 5641 5642 5644 5645 5646 5647 5649 5650 5651 5652 5653 5654 5654 5655 5656 5657 5657 5658 5659 5660 5661 5661 5662 5663 5664 5665 5666 5666 5667 5668 5669 5670 5670 5671 5672 5673 5674 5674 5675 5675 5676 5676 5676 5676 5677 5677 5677 5676 5676 5676 5676 5675 5675
5605 5606 5607 5608 5609 5610 5611 5612 5613 5613 5615 5616 5617 5618 5619 5620 5622 5623 5623 5624 5625 5625 5625 5626 5626 5626 5627 5628 5629 5631 5632 5634 5636 5637 5638 5639 5641 5642 5643 5644 5645 5646 5647 5648 5649 5650 5651 5652 5652 5653 5654 5655 5655 5656 5657 5657 5658 5659 5660 5661 5662 5662 5663 5663 5664 5665 5665 5666 5667 5667 5668 5668 5669 5670 5670 5670 5670 5670 5670 5670 5670 5670 5670 5670 5669 5669
5603 5604 5605 5606 5607 5608 5609 5609 5610 5611 5612 5613 5614 5616 5617 5617 5619 5620 5620 5621 5622 5622 5622 5623 5623 5623 5623 5624 5625 5626 5627 5629 5631 5633 5634 5636 5637 5638 5639 5640 5641 5642 5643 5643 5645 5646 5647 5647 5648 5649 5650 5650 5651 5652 5652 5653 5653 5654 5655 5656 5657 5657 5658 5659 5659 5660 5661 5661 5662 5662 5663 5663 5663 5663 5663 5664 5664 5663 5663 5663 5664 5664 5664 5663 5663 5662
5601 5602 5603 5604 5605 5605 5606 5607 5607 5609 5610 5610 5611 5613 5614 5615 5616 5617 5617 5617 5618 5619 5619 5619 5620 5620 5620 5620 5621 5621 5623 5625 5627 5629 5630 5632 5633 5634 5635 5636 5637 5638 5639 5639 5640 5641 5642 5643 5644 5644 5645 5646 5647 5647 5648 5649 5649 5650 5651 5651 5652 5653 5654 5654 5655 5655 5656 5656 5657 5657 5657 5657 5657 5657 5657 5657 5657 5657 5657 5657 5657 5657 5657 5656 5656 5655